Hayward, WI

11:30 PM CDT on April 29, 2017 (GMT -0500)
Sawyer County

Weather History for KHYR - November, 2012

Change the Weather History Date:

Monday, November 12, 2012

  Actual Average Record
Temperature  
Mean Temperature 22 °F -  
Max Temperature 24 °F 31 °F 63 °F (2011)
Min Temperature 19 °F 9 °F -14 °F (1966)
Degree Days  
Heating Degree Days 44    
Moisture  
Dew Point 14 °F    
Average Humidity 73    
Maximum Humidity 86    
Minimum Humidity 65    
Precipitation  
Precipitation 0.00 in - - ()
Sea Level Pressure  
Sea Level Pressure 29.97 in    
Wind  
Wind Speed 7 mph (WSW)    
Max Wind Speed 10 mph    
Max Gust Speed 20 mph    
Visibility 6 miles    
Events Snow    
Averages and records for this station are not official NWS values.
T = Trace of Precipitation, MM = Missing Value Source: NWS Daily Summary

Daily Weather History Graph

Daily Weather History Graph

Search for Another Location

Airport or City:

Trip Planner

Search our weather history database for the weather conditions in past years. The results will help you decide how hot, cold, wet, or windy it might be!

Date:

Astronomy

Nov. 12, 2012 Rise Set
Actual Time 7:02 AM CST 4:36 PM CST
Civil Twilight 6:30 AM CST 5:08 PM CST
Nautical Twilight 5:54 AM CST 5:44 PM CST
Astronomical Twilight 5:19 AM CST 6:20 PM CST
Moon 5:25 AM CST (11/12) 3:43 PM CST (11/12)
Length of Visible Light 10h 38m
Length of Day
9h 33m
Waning Crescent, 2% of the Moon is Illuminated
Nov 12
Waning Crescent
Nov 13
New
Nov 20
First Quarter
Nov 28
Full
Dec 6
Last Quarter

Hourly Weather History & Observations

Time (CST) Temp. Windchill Dew Point Humidity Pressure Visibility Wind Dir Wind Speed Gust Speed Precip Events Conditions
12:53 AM 23.0 °F 13.1 °F 14.0 °F 68% 29.88 in 9.0 mi SW 9.2 mph - 0.00 in Snow Light Snow
1:53 AM 21.9 °F 12.5 °F 12.9 °F 68% 29.89 in 9.0 mi WSW 8.1 mph 16.1 mph 0.00 in Snow Light Snow
2:53 AM 21.0 °F 11.4 °F 12.9 °F 71% 29.89 in 5.0 mi WSW 8.1 mph - 0.00 in Snow Light Snow
3:15 AM 21.2 °F 13.6 °F 15.8 °F 80% 29.84 in 2.5 mi Variable 5.8 mph 18.4 mph 0.00 in Snow Light Snow
3:53 AM 19.9 °F 13.4 °F 12.9 °F 74% 29.91 in 9.0 mi Variable 4.6 mph - 0.00 in   Overcast
4:13 AM 19.4 °F 11.5 °F 12.2 °F 74% 29.85 in 8.0 mi WSW 5.8 mph - 0.00 in Snow Light Snow
4:53 AM 19.9 °F 11.1 °F 10.9 °F 68% 29.92 in 9.0 mi Variable 6.9 mph - 0.00 in   Overcast
5:12 AM 19.4 °F 10.4 °F 12.2 °F 74% 29.86 in 6.0 mi Variable 6.9 mph - 0.00 in Snow Light Snow
5:53 AM 19.9 °F 10.1 °F 10.0 °F 65% 29.91 in 10.0 mi SW 8.1 mph - 0.00 in   Overcast
6:53 AM 19.0 °F 8.2 °F 10.9 °F 71% 29.92 in 4.0 mi SW 9.2 mph - 0.00 in Snow Light Snow
7:33 AM 19.4 °F 10.4 °F 10.4 °F 68% 29.87 in 5.0 mi SW 6.9 mph - 0.00 in Snow Light Snow
7:53 AM 19.0 °F 11.1 °F 10.9 °F 71% 29.94 in 5.0 mi Variable 5.8 mph - 0.00 in Snow Light Snow
8:20 AM 19.4 °F 8.6 °F 12.2 °F 74% 29.88 in 6.0 mi SW 9.2 mph - 0.00 in Snow Light Snow
8:29 AM 19.4 °F 10.4 °F 12.2 °F 74% 29.88 in 4.0 mi Variable 6.9 mph - 0.00 in Snow Light Snow
8:53 AM 19.9 °F 11.1 °F 12.0 °F 71% 29.94 in 10.0 mi SW 6.9 mph - 0.00 in   Overcast
9:00 AM 19.4 °F 9.5 °F 12.2 °F 74% 29.88 in 10.0 mi SW 8.1 mph - N/A   Overcast
9:10 AM 19.4 °F 9.5 °F 12.2 °F 74% 29.88 in 10.0 mi WSW 8.1 mph - N/A   Overcast
9:53 AM 19.9 °F 11.1 °F 12.0 °F 71% 29.95 in 7.0 mi SW 6.9 mph 17.3 mph 0.00 in Snow Light Snow
10:39 AM 21.2 °F 14.9 °F 12.2 °F 68% 29.90 in 2.5 mi Variable 4.6 mph - 0.00 in Snow Light Snow
10:49 AM 21.2 °F 10.1 °F 12.2 °F 68% 29.90 in 4.0 mi WSW 10.4 mph - 0.00 in Snow Light Snow
10:53 AM 21.0 °F 10.6 °F 12.0 °F 68% 29.96 in 4.0 mi WSW 9.2 mph - 0.00 in Snow Light Snow
11:04 AM 21.2 °F 11.7 °F 12.2 °F 68% 29.90 in 7.0 mi WSW 8.1 mph 19.6 mph 0.00 in Snow Light Snow
11:28 AM 21.2 °F 11.7 °F 12.2 °F 68% 29.89 in 3.0 mi WSW 8.1 mph - 0.00 in Snow Light Snow
11:36 AM 21.2 °F 13.6 °F 14.0 °F 74% 29.89 in 2.5 mi Variable 5.8 mph - 0.00 in Snow Light Snow
11:53 AM 21.9 °F 15.7 °F 14.0 °F 72% 29.96 in 2.5 mi Variable 4.6 mph 17.3 mph 0.00 in Snow Light Snow
12:04 PM 21.2 °F 11.7 °F 14.0 °F 74% 29.90 in 3.0 mi WSW 8.1 mph - 0.00 in Snow Light Snow
12:12 PM 21.2 °F 13.6 °F 15.8 °F 80% 29.90 in 2.5 mi Variable 5.8 mph - 0.00 in Snow Light Snow
12:23 PM 21.2 °F 13.6 °F 15.8 °F 80% 29.90 in 1.0 mi Variable 5.8 mph 17.3 mph 0.00 in Snow Light Snow
12:33 PM 21.2 °F 13.6 °F 15.8 °F 80% 29.90 in 1.8 mi Variable 5.8 mph - 0.00 in Snow Light Snow
12:53 PM 21.9 °F 15.7 °F 16.0 °F 78% 29.97 in 1.2 mi Variable 4.6 mph - 0.00 in Snow Light Snow
1:22 PM 21.2 °F 12.6 °F 15.8 °F 80% 29.92 in 1.0 mi Variable 6.9 mph - 0.00 in Snow Light Snow
1:32 PM 23.0 °F 14.7 °F 17.6 °F 80% 29.92 in 1.5 mi Variable 6.9 mph - 0.00 in Snow Light Snow
1:46 PM 21.2 °F 13.6 °F 17.6 °F 86% 29.92 in 1.0 mi Variable 5.8 mph - 0.00 in Snow Light Snow
1:53 PM 21.9 °F 13.4 °F 17.1 °F 82% 29.99 in 1.0 mi Variable 6.9 mph - 0.00 in Snow Light Snow
2:02 PM 23.0 °F 17.0 °F 17.6 °F 80% 29.93 in 1.8 mi Variable 4.6 mph - 0.00 in Snow Light Snow
2:49 PM 23.0 °F 12.4 °F 15.8 °F 74% 29.95 in 2.0 mi WSW 10.4 mph 17.3 mph 0.00 in Snow Light Snow
2:53 PM 23.0 °F 13.9 °F 16.0 °F 74% 30.01 in 2.5 mi WSW 8.1 mph 17.3 mph 0.00 in Snow Light Snow
3:01 PM 23.0 °F 17.0 °F 15.8 °F 74% 29.95 in 4.0 mi Variable 4.6 mph - 0.00 in Snow Light Snow
3:31 PM 23.0 °F 15.8 °F 15.8 °F 74% 29.97 in 5.0 mi West 5.8 mph - 0.00 in Snow Light Snow
3:40 PM 23.0 °F 15.8 °F 15.8 °F 74% 29.98 in 2.5 mi Variable 5.8 mph - 0.00 in Snow Light Snow
3:53 PM 23.0 °F 15.8 °F 16.0 °F 74% 30.05 in 4.0 mi Variable 5.8 mph 17.3 mph 0.00 in Snow Light Snow
4:53 PM 24.1 °F 19.7 °F 15.1 °F 69% 30.08 in 10.0 mi Variable 3.5 mph - 0.00 in   Overcast
5:53 PM 24.1 °F 17.0 °F 15.1 °F 69% 30.12 in 10.0 mi Variable 5.8 mph - 0.00 in   Overcast
6:53 PM 23.0 °F 15.8 °F 15.1 °F 72% 30.15 in 10.0 mi West 5.8 mph - N/A   Overcast
7:46 PM 23.0 °F 15.8 °F 15.8 °F 74% 30.10 in 10.0 mi Variable 5.8 mph - N/A   Overcast
7:53 PM 23.0 °F 15.8 °F 15.1 °F 72% 30.17 in 10.0 mi Variable 5.8 mph - N/A   Overcast
8:48 PM 23.0 °F 17.0 °F 15.8 °F 74% 30.13 in 10.0 mi Variable 4.6 mph - N/A   Overcast
8:53 PM 23.0 °F 14.7 °F 14.0 °F 68% 30.20 in 10.0 mi Variable 6.9 mph - N/A   Overcast
9:53 PM 23.0 °F 15.8 °F 14.0 °F 68% 30.23 in 10.0 mi West 5.8 mph - N/A   Overcast
10:53 PM 21.9 °F 14.5 °F 14.0 °F 72% 30.25 in 10.0 mi Variable 5.8 mph - N/A   Overcast
11:53 PM 21.0 °F 11.4 °F 12.9 °F 71% 30.28 in 10.0 mi West 8.1 mph - N/A   Overcast